Home > Weather > Yuma > Past weeks

Flag for USA Weather for the Past 2 Weeks in Yuma, Arizona, USA

Now
92 °F

Sunny.


Feels Like: 88 °F
Forecast: 67 / 94 °F
Wind: 5 mph from Northwest

Location: Yuma Marine Corps Air Station

Current Time: May 3, 2016 at 2:10:37 PM

Latest Report: May 3, 2016 at 12:57 PM


Visibility: 10 mi

Pressure: 29.87 "Hg

Humidity: 12%

Dew Point: 33 °F

Location of YumaLocation

Historic Weather in Yuma — Graph

°F

Yuma Temperature Yesterday

Maximum temperature yesterday: 89 °F (at 2:57 PM)
Minimum temperature yesterday: 65 °F (at 3:57 AM)
Average temperature yesterday: 78 °F

High & Low Weather Summary for the Past Weeks

 TemperatureHumidityPressure
High96 °F (Apr 20, 2:57 PM)75% (Apr 24, 6:57 AM)30.03 "Hg (Apr 24, 6:57 AM)
Low53 °F (Apr 26, 4:57 AM)5% (Apr 19, 1:57 PM)29.60 "Hg (Apr 27, 6:57 PM)
Average75 °F30%29.81 "Hg
* Reported Apr 18 12:57 PM — May 3 12:57 PM, Yuma, Weather by CustomWeather, © 2016

Note: Actual official high and low records may vary slightly from our data, if they occured in-between our weather recording intervals... More about our weather records

Advertising

Yuma Weather History for the Previous 24 Hours

Scroll right to see more
 ConditionsComfort  
Time TempWeatherWind HumidityBarometerVisibility
12:57 PM
Tue, May 3
92 °FSunny.5 mph12%29.87 "Hg10 mi
11:57 AM90 °FSunny.7 mph15%29.89 "Hg10 mi
10:57 AM88 °FSunny.9 mph18%29.90 "Hg10 mi
9:57 AM85 °FSunny.13 mph20%29.90 "Hg10 mi
8:57 AM81 °FSunny.8 mph24%29.91 "Hg10 mi
7:57 AM78 °FSunny.10 mph25%29.90 "Hg10 mi
6:57 AM75 °FSunny.6 mph27%29.88 "Hg10 mi
5:57 AM73 °FSunny.8 mph29%29.86 "Hg10 mi
4:57 AM72 °FClear.7 mph31%29.85 "Hg10 mi
3:57 AM70 °FClear.5 mph42%29.84 "Hg10 mi
2:57 AM70 °FClear.No wind41%29.84 "Hg10 mi
1:57 AM72 °FClear.No wind38%29.85 "Hg10 mi
12:57 AM73 °FClear.No wind36%29.86 "Hg10 mi
11:57 PM
Mon, May 2
74 °FClear.6 mph35%29.88 "Hg10 mi
10:57 PM75 °FClear.6 mph34%29.88 "Hg10 mi
9:57 PM76 °FClear.5 mph35%29.88 "Hg10 mi
8:57 PM80 °FPassing clouds.7 mph26%29.87 "Hg10 mi
7:57 PM82 °FPassing clouds.6 mph24%29.85 "Hg10 mi
6:57 PM85 °FSunny.7 mph21%29.83 "Hg10 mi
5:57 PM88 °FPassing clouds.7 mph18%29.84 "Hg10 mi
4:57 PM88 °FPassing clouds.5 mph18%29.85 "Hg10 mi
3:57 PM88 °FPassing clouds.6 mph17%29.86 "Hg10 mi
2:57 PM89 °FScattered clouds.3 mph16%29.88 "Hg10 mi
Weather by CustomWeather, © 2016

See weather overviewHow to use our weather pages